Regional Weather Roundup
Issued by NWS Wakefield, VA

Home | Current Version | Previous Version | Text Only | Print | Product List | Glossary On
Versions: 1 2 3 4 5 6 7 8 9 10 11 12 13 14 15 16 17 18 19 20 21 22 23 24 25 26 27
000
ASUS41 KAKQ 271916
RWRAKQ

REGIONAL WEATHER ROUNDUP
NATIONAL WEATHER SERVICE WAKEFIELD VA
300 PM EDT THU APR 27 2017

Note: "fair" indicates few or no clouds below 12,000 feet with no
significant weather and/or obstructions to visibility. * = Denotes
station may not report precipitation (e.g., rain,snow,etc.),
thunder or fog.

VAZ042-051-052>054-056-272000-
NORTHERN VIRGINIA

CITY           SKY/WX    TMP DP  RH WIND       PRES   REMARKS
WASH NATIONAL  CLOUDY    80  65  59 S12       29.79F
DULLES         CLOUDY    80  61  52 S16G22    29.78S
FORT BELVOIR   CLOUDY    82  63  53 S6        29.78F
QUANTICO       CLOUDY    79  63  57 S18G24    29.79F
FREDERICKSBRG* CLOUDY    83  62  49 SW16      29.78F
STAFFORD*      MOSUNNY   81  62  52 S7G17     29.82F
WARRENTON      CLOUDY    83  56  39 S12G18    29.77F
CULPEPER*      PTSUNNY   82  61  49 S14G20    29.78F
MANASSAS*        N/A     82  63  52 S13       29.77F
LEESBURG*      CLOUDY    82  64  54 S17G24    29.78F
WINCHESTER     PTSUNNY   77  61  57 SE16G22   29.74F
FRONT ROYAL*   PTCLDY    79  61  53 S10G18    29.73F
LURAY*         CLEAR     81  52  36 S12G22    29.75F
$$

VAZ048-049-060>072-079>083-272000-
CENTRAL AND SOUTH CENTRAL VIRGINIA

CITY           SKY/WX    TMP DP  RH WIND       PRES   REMARKS
RICHMOND       PTSUNNY   81  62  52 S13       29.82S
CHESTERFIELD*  FAIR      82  54  36 S12G25    29.83F
PETERSBURG*    MOSUNNY   82  58  43 S9G16     29.83F
HANOVER        CLOUDY    84  61  45 S12G18    29.82F
TAPPAHANNOCK*  CLOUDY    84  57  39 S9        29.82S
QUINTON*       FAIR      82  60  46 S5G16     29.82S
CHARLOTTSVILLE SUNNY     83  57  41 S22G29    29.78F
GORDONSVILLE*  PTCLDY    82  60  48 SW17G28   29.77F
ORANGE*        MOSUNNY   81  57  44 SW22      29.78S
LOUISA*        MOSUNNY   84  63  48 S14G21    29.80R
BUMPASS*       FAIR      80  62  54 S7G18     29.79F
FARMVILLE*     MOSUNNY   82  59  45 S16G22    29.80F
CREWE*         MOCLDY    80  61  51 S10G23    29.83R
FORT PICKETT*  FAIR      81  53  37 SW18G28   29.84F
CHASE CITY*    FAIR      80  54  40 SW6       29.84F
CLARKSVILLE*   FAIR      79  57  47 S12G21    29.85R
SOUTH HILL*    MOSUNNY   78  62  57 S17       29.90F
LAWRENCEVILLE* FAIR      81  60  49 S9G22     29.84F
EMPORIA*       PTSUNNY   79  61  53 S8G18     29.87S
$$

VAZ088>098-272000-
SOUTHEAST VIRGINIA

CITY           SKY/WX    TMP DP  RH WIND       PRES   REMARKS
NORFOLK        CLOUDY    86  60  41 SW21      29.84S
VIRGINIA BEACH PTSUNNY   82  60  47 S15       29.84F
NORFOLK NAVAL  CLOUDY    84  54  35 SW15G22   29.85F
WEST POINT*    SUNNY     83  54  36 S10G17    29.84S
SALUDA*        FAIR      82  58  44 S9        29.82F
NEWPORT NEWS   CLOUDY    83  56  39 SW16      29.84S
LANGLEY AFB    SUNNY     82  60  46 S16G22    29.84S
FORT EUSTIS    MOSUNNY   84  57  39 S9        29.82S
WILLIAMSBURG*  SUNNY     84  57  39 S6G16     29.85S
HR EXEC AP*    FAIR      84  59  42 SW16G22   29.82F
FRANKLIN*      SUNNY     82  57  42 SW10G21   29.86S
US460-WAKEFLD  SUNNY     82  58  43 S10       29.84F
$$

VAZ020-022-025-037-045-272000-
WEST CENTRAL AND SOUTHWEST VIRGINIA

CITY           SKY/WX    TMP DP  RH WIND       PRES   REMARKS
STAUNTON*      SUNNY     78  57  47 S12G20    29.81R
WAYNESBORO*    PTCLDY    78  58  49 S10G22    29.81R
HOT SPRINGS VA MOSUNNY   68  45  42 S6G20     29.90S
LYNCHBURG      SUNNY     79  56  45 S15G23    29.84S
DANVILLE       MOSUNNY   79  56  45 S12G20    29.85R
SOUTH BOSTON*  FAIR      80  54  40 S15G26    29.84F
MARTINSVILLE   CLOUDY    79  58  47 SW5       29.86F
ROANOKE        CLOUDY    78  57  48 S14G22    29.83R
BLACKSBURG     CLOUDY    72  56  57 S10G17    29.89S
DUBLIN*        CLOUDY    73  52  48 S17G24    29.87R
MARION*        CLOUDY    68  56  66 CALM      29.88S
HILLSVILLE*    CLOUDY    65  57  74 S12G20    29.88F
RICHLANDS*     CLOUDY    69  56  62 S9G17     29.82R
WISE*          LGT RAIN  63  63 100 SW8       29.84R
ABINGDON*      CLOUDY    77  58  51 SW14      29.80F
$$

MDZ021>025-VAZ099-100-272000-
SOUTHERN MARYLAND AND THE DELMARVA PENINSULA

CITY           SKY/WX    TMP DP  RH WIND       PRES   REMARKS
PATUXENT RIVER CLOUDY    74  66  76 SE12      29.81S
BAY BRIDGE APT CLOUDY    82  66  57 S10       29.80F HAZE
LEONARDTOWN    MOSUNNY   81  63  54 S8        29.82F
DOVER          MOSUNNY   67  61  81 E10       29.83F
GEORGETOWN     CLOUDY    83  62  49 SW13      29.83F
EASTON         MOSUNNY   82  64  54 S10       29.86F
CAMBRIDGE      SUNNY     79  66  65 S12       29.83S
SALISBURY      CLOUDY    81  61  50 S16       29.83F
OCEAN CITY     CLOUDY    67  59  75 S6        29.86F
WALLOPS ISLAND CLOUDY    71  62  73 S14       29.87S
ACCOMACK*      CLOUDY    79  63  57 S14       29.86R
$$

NCZ012>017-030>032-272000-
NORTH CENTRAL AND EASTERN NORTH CAROLINA

CITY           SKY/WX    TMP DP  RH WIND       PRES   REMARKS
ROANOKE RAPIDS FAIR      79  63  57 S15       29.87S
RALEIGH        PTSUNNY   81  57  43 S12       29.88S
ELIZABETH CITY SUNNY     82  65  56 SW13G22   29.87F
AHOSKIE*         N/A     81  62  51 S7G16     29.87S
EDENTON*       MOSUNNY   84  65  52 S15       29.88S
CURRITUCK*     MOSUNNY   82  63  51 S8        29.88S
KILL DEVIL HLS SUNNY     80  65  61 S10G16    29.89S
MANTEO         SUNNY     76  67  73 S16G22    29.91S
CAPE HATTERAS  SUNNY     79  65  62 SW9       29.93F HAZE
TARBORO*       NOT AVBL
GOLDSBORO      PTSUNNY   83  57  41 S12       29.87F
WASHINGTON     MOSUNNY   82  61  48 SW14      29.88S
GREENVILLE     SUNNY     82  61  47 SW16G23   29.91S
NEW BERN       MOSUNNY   83  61  47 SW16G23   29.90S
WILMINGTON     MOSUNNY   82  61  48 SW21      29.91S
$$

VAZ048-272000-
ELSEWHERE

CITY           SKY/WX    TMP DP  RH WIND       PRES   REMARKS
HARRISBURG PA  CLOUDY    78  62  57 S7        29.76F
BALTIMORE      CLOUDY    78  66  66 SE9       29.79F
ANNAPOLIS      CLOUDY    70  64  81 SE8       29.80F
ANDREWS AFB    CLOUDY    79  64  60 S10       29.78F
PHILADELPHIA   CLOUDY    80  63  55 S9        29.82F
HENDERSON NC   MOSUNNY   76  55  47 S8G22     29.86S
GREENSBORO     CLOUDY    74  56  53 S15       29.87S
ROCKY MOUNT    MOSUNNY   81  59  47 SW14G22   29.88S
$$

VAZ100-272000-
MARINE

STATION/POSITION TIME  TEMP    WIND        PRES    WAVE   SWELL
                       AIR SEA DIR/SP/G            HT/PER HT/PER
                 (UTC) (F)     (DEG/KT/KT) (MB)    (FT/S) (FT/S)
CAPE MAY NJ      1848   63 56  110/ 12/ 14 1010.6F
LEWES DE         1848   69 56  140/  9/ 14 1010.3F
15NM E FENWICK I 1850   56 53  150/  8/ 10 1012.1F   4/10   5/10
WACHAPREAGUE VA  1848   71 70  160/  9/ 12 1010.9F
THOMAS POINT MD  1900   74 58  150/ 16/ 16   N/A
GOOSES REEF MD   1900   67 55  150/ 14/ 17 1010.1    1/ 2
COVE POINT MD    1848   65     180/ 13/ 15 1010.4F
SOLOMONS ISLAND  1848   70 61  130/ 13/ 15   N/A
BISHOPS HEAD MD  1848   66 67  160/ 13/ 15 1010.6F
PINEY POINT MD   1848          190/ 11/ 12   N/A
POTOMAC MD       1900   67 61  160/ 14/ 16 1008.9    2/ 2
CAMBRIDGE MD     1836   79 64                N/A
LEWISETTA VA     1848   79 65  220/ 13/ 16 1009.3S
RAPPAHANNOCK LGT 1848          170/ 15/ 15 1011.2F
STINGRAY PT      1900   68 65  180/ 10/ 14 1010.7    1
YORK RVR RNG VA  1848   76     220/ 17/ 18 1009.7F
YORKTOWN VA      1848   81 64  190/  9/ 14 1009.9F
JAMESTOWN VA     1900   80 69  210/ 10/ 16   N/A     0
DOMINION TERM VA 1848   76     220/ 12/ 14 1010.6F
KIPTOPEKE VA     1848      61  170/ 14/ 15   N/A
CHES BAY BRIDGE  1848   79 64  230/ 17/ 19 1010.3F
CAPE HENRY VA    1848   82     190/ 14/ 20   N/A
WILLOUBY STN VA  1848   80     200/ 18/ 20 1011.5F
S CRANEY ISL VA  1848   81     210/ 13/ 18 1010.5S
CAPE HENRY BUOY  1842      61                N/A     3/ 9   2/11
1ST LANDING BUOY 1900   75 63              1010.7    1/ 3
CAPE CHARLES BUO 1851      59                N/A     3/10   2/11
64NM E OF VA BCH 1850   61 57  170/ 10/ 12 1013.3F   5/ 9   5/ 9
DUCK PIER NC     1848   77 58  180/ 15/ 17 1011.6F
44100 DUCK FRF   1835      62                N/A     4/12   2/12
44056 DUCK FRF   1830      63                N/A     3/11   2/11
OREGON INLET NC  1842   76 70  150/ 11/ 15 1012.6F
HATTERAS NC      1848   76 69  200/  8/ 13 1013.3F
DIAMOND SHLS NC  1850   76 77  220/ 14/ 16 1013.4F   5/ 9   3/ 9
CAPE LOOKOUT NC  1900   75     190/ 12/ 14 1013.3R
$$




USA.gov is the U.S. government's official web portal to all federal, state and local government web resources and services.